Le nostre stazioni meteo in Italia

Pubblicità
Il mio iltempo24.it
Rodkallen, Svezia (2188): Temperatura & dewpoint: 17.10.2017 04:00:00 - 23.10.2017 04:00:00 (CEST)Rodkallen, Svezia (2188): velocità del vento & gusts: 17.10.2017 04:00:00 - 23.10.2017 04:00:00 (CEST)Rodkallen, Svezia (2188): direzione del vento: 17.10.2017 04:00:00 - 23.10.2017 04:00:00 (CEST)Rodkallen, Svezia (2188): visibility: 17.10.2017 04:00:00 - 23.10.2017 04:00:00 (CEST)Rodkallen, Svezia (2188): precipitazioni: 17.10.2017 04:00:00 - 23.10.2017 04:00:00 (CEST)
Data & Tempo tt [°C] td [°C] ff [km/h] ff [kn] fx [km/h] fx [kn] dd vv [km] rr [mm]
23.10.2017 04:00:00 - - - - - - - - -
23.10.2017 03:00:00 2,3 -0,1 22 12 27 15 N 50 0,0
23.10.2017 02:00:00 2,8 -1,6 16 9 25 13 NNE 50 0,0
23.10.2017 01:00:00 2,6 -2,3 18 10 31 17 NNE 50 0,0
23.10.2017 00:00:00 2,7 -2,4 19 11 31 17 NE 50 0,0
22.10.2017 23:00:00 2,9 -1,8 21 12 32 17 NE 50 0,0
22.10.2017 22:00:00 3,3 -2,0 24 13 35 19 NE 50 0,0
22.10.2017 21:00:00 3,1 -1,8 25 13 37 20 NNE 50 0,0
22.10.2017 20:00:00 3,2 -0,8 29 15 37 20 NNE 50 0,0
22.10.2017 19:00:00 3,5 -1,1 29 16 36 19 NNE 50 0,0
22.10.2017 18:00:00 3,2 0,4 25 14 32 18 N 50 0,0
22.10.2017 17:00:00 3,2 0,6 23 12 28 15 N 50 0,1
22.10.2017 16:00:00 3,0 0,6 21 12 28 15 N 50 0,0
22.10.2017 15:00:00 3,2 0,8 20 11 27 15 N 50 0,0
22.10.2017 14:00:00 3,1 0,5 18 10 29 15 N 50 0,0
22.10.2017 13:00:00 2,6 0,5 22 12 29 15 N 50 0,0
22.10.2017 12:00:00 1,7 -0,2 18 10 26 14 N 49 0,0
22.10.2017 11:00:00 1,2 -1,2 16 9 25 14 N 50 0,0
22.10.2017 10:00:00 0,4 -2,0 13 7 25 14 NNO 46 0,0
22.10.2017 09:00:00 -0,2 -2,4 13 7 26 14 NNO 50 0,0
22.10.2017 08:00:00 0,1 -2,6 17 9 26 14 NNO 50 0,0
22.10.2017 07:00:00 0,3 -1,6 17 9 24 13 NNO 50 0,0
22.10.2017 06:00:00 0,0 -1,9 16 9 23 13 NO 50 0,0
22.10.2017 05:00:00 0,1 -1,5 15 8 23 13 NO 50 0,0
22.10.2017 04:00:00 -0,3 -2,5 17 9 23 12 NO 50 0,0
22.10.2017 03:00:00 -0,1 -2,3 16 9 25 14 NO 50 0,0
22.10.2017 02:00:00 0,5 -1,9 14 8 26 14 NO 50 0,0
22.10.2017 01:00:00 0,4 -2,6 17 9 27 15 NO 50 0,0
22.10.2017 00:00:00 0,8 -1,9 20 11 28 15 ONO 50 0,0
21.10.2017 23:00:00 1,0 -1,9 19 11 28 15 ONO 50 0,0
21.10.2017 22:00:00 1,0 -2,1 17 9 26 14 ONO 50 0,0
21.10.2017 21:00:00 1,5 -1,7 21 11 27 14 ONO 50 0,0
21.10.2017 20:00:00 1,8 -1,8 19 10 27 14 ONO 50 0,0
21.10.2017 19:00:00 1,7 -2,4 19 10 26 14 ONO 50 0,0
21.10.2017 18:00:00 1,9 -2,1 19 11 27 15 ONO 50 0,0
21.10.2017 17:00:00 1,8 -2,7 21 11 32 17 ONO 50 0,0
21.10.2017 16:00:00 2,1 -2,4 21 11 34 18 ONO 50 0,0
21.10.2017 15:00:00 2,2 -2,1 24 13 34 18 O 50 0,0
21.10.2017 14:00:00 1,7 -1,9 24 13 32 17 O 50 0,0
21.10.2017 13:00:00 0,8 -2,1 18 10 29 16 O 50 0,0
21.10.2017 12:00:00 -0,2 -2,6 18 10 34 18 O 50 0,0
21.10.2017 11:00:00 -0,8 -2,5 17 9 34 18 ONO 50 0,0
21.10.2017 10:00:00 -1,4 -3,1 21 11 29 16 ONO 50 0,0
21.10.2017 09:00:00 -1,3 -3,2 18 10 31 17 ONO 50 0,0
21.10.2017 08:00:00 -0,5 -2,2 21 11 33 18 O 50 0,0
21.10.2017 07:00:00 0,1 -2,0 27 14 33 18 O 50 0,0
21.10.2017 06:00:00 0,4 -1,7 24 13 31 17 O 50 0,0
21.10.2017 05:00:00 0,7 -1,2 22 12 31 17 O 50 0,0
21.10.2017 04:00:00 0,6 -1,5 19 10 25 13 O 50 0,0
21.10.2017 03:00:00 0,8 -1,9 14 8 20 11 O 50 0,0
21.10.2017 02:00:00 0,5 -2,5 12 6 18 10 ONO 50 0,0
21.10.2017 01:00:00 1,3 -2,5 12 6 23 13 ONO 50 0,0
21.10.2017 00:00:00 2,0 -2,7 15 8 25 14 O 50 0,0
20.10.2017 23:00:00 2,4 -2,9 11 6 25 14 ONO 50 0,0
20.10.2017 22:00:00 2,7 -3,4 6 3 18 10 NNO 50 0,0
20.10.2017 21:00:00 2,9 -3,0 7 4 18 10 N 50 0,0
20.10.2017 20:00:00 2,8 -3,1 5 3 20 11 NO 50 0,0
20.10.2017 19:00:00 2,9 -2,4 8 4 23 12 N 50 0,0
20.10.2017 18:00:00 3,0 -2,1 13 7 30 16 N 50 0,0
20.10.2017 17:00:00 3,2 -1,6 16 9 32 17 N 50 0,0
20.10.2017 16:00:00 3,1 -0,9 20 11 36 19 N 50 0,0
20.10.2017 15:00:00 3,1 -0,5 24 13 40 22 N 50 0,0
20.10.2017 14:00:00 3,1 0,0 27 14 44 24 NNE 50 0,0
20.10.2017 13:00:00 3,1 0,3 35 19 46 25 N 50 0,0
20.10.2017 12:00:00 3,2 0,9 34 18 46 25 N 50 0,0
20.10.2017 11:00:00 3,1 1,3 35 19 44 24 N 18 0,0
20.10.2017 10:00:00 2,8 0,9 31 17 42 23 N 50 0,0
20.10.2017 09:00:00 2,9 1,0 29 15 40 22 N 50 0,0
20.10.2017 08:00:00 2,8 1,5 25 14 38 20 NNO 50 0,0
20.10.2017 07:00:00 2,6 1,0 22 12 35 19 NNO 40 0,0
20.10.2017 06:00:00 2,8 0,7 22 12 37 20 NO 50 0,0
20.10.2017 05:00:00 2,7 0,4 26 14 37 20 NO 50 0,0
20.10.2017 04:00:00 3,3 0,5 22 12 31 17 NNO 50 0,0
20.10.2017 03:00:00 3,9 -0,1 16 9 24 13 NO 50 0,0
20.10.2017 02:00:00 4,9 1,4 19 10 22 12 ONO 50 0,0
20.10.2017 01:00:00 5,2 1,3 11 6 16 9 O 50 0,0
20.10.2017 00:00:00 5,0 0,4 7 4 16 9 O 50 0,0
19.10.2017 23:00:00 5,9 2,7 12 6 15 8 SO 50 0,0
19.10.2017 22:00:00 5,8 3,0 11 6 15 8 S 50 0,0
19.10.2017 21:00:00 5,5 2,3 8 5 12 6 SSO 50 0,0
19.10.2017 20:00:00 5,1 2,3 6 3 9 5 S 50 0,0
19.10.2017 19:00:00 4,8 1,6 4 2 6 3 SSE 50 0,0
19.10.2017 18:00:00 4,5 1,7 3 2 11 6 ESE 50 0,0
19.10.2017 17:00:00 4,1 1,5 0 0 12 7 N 50 0,0
19.10.2017 16:00:00 4,5 1,9 8 5 12 7 O 50 0,0
19.10.2017 15:00:00 4,5 2,0 5 3 14 8 NO 50 0,0
19.10.2017 14:00:00 4,4 2,1 8 5 18 10 N 50 0,0
19.10.2017 13:00:00 4,4 2,1 10 5 21 12 N 50 0,0
19.10.2017 12:00:00 4,2 2,2 13 7 25 13 NNO 50 0,0
19.10.2017 11:00:00 4,0 1,9 14 7 27 14 N 50 0,0
19.10.2017 10:00:00 3,9 1,4 16 9 28 15 NNO 50 0,0
19.10.2017 09:00:00 3,8 1,5 18 10 31 17 NO 50 0,0
19.10.2017 08:00:00 3,7 1,4 20 11 34 18 NNO 50 0,0
19.10.2017 07:00:00 3,8 1,7 17 9 37 20 NNO 49 0,0
19.10.2017 06:00:00 3,9 1,1 25 13 40 22 NNO 50 0,0
19.10.2017 05:00:00 4,2 1,4 24 13 40 22 NNO 50 0,0
19.10.2017 04:00:00 4,2 1,2 22 12 42 23 NNO 50 0,0
19.10.2017 03:00:00 4,2 0,9 25 13 42 23 NNO 50 0,0
19.10.2017 02:00:00 4,2 0,7 26 14 40 22 NNO 50 0,0
19.10.2017 01:00:00 3,8 0,8 22 12 33 18 NO 50 0,0
19.10.2017 00:00:00 3,3 0,5 20 11 38 21 ONO 50 0,0
18.10.2017 23:00:00 3,1 0,3 20 11 40 22 NNO 50 0,0
18.10.2017 22:00:00 3,6 0,6 21 12 40 22 NNO 50 0,0
18.10.2017 21:00:00 4,0 1,9 18 10 29 16 NNO 50 0,0
18.10.2017 20:00:00 3,9 1,6 19 10 29 15 NNO 50 0,0
18.10.2017 19:00:00 4,2 1,7 19 11 29 16 NO 50 0,0
18.10.2017 18:00:00 4,3 1,8 20 11 29 16 NO 50 0,0
18.10.2017 17:00:00 3,4 1,4 19 11 30 16 NO 50 0,0
18.10.2017 16:00:00 2,9 1,4 22 12 30 16 NO 50 0,0
18.10.2017 15:00:00 3,4 1,9 17 9 28 15 NO 50 0,0
18.10.2017 14:00:00 3,2 1,9 17 9 28 15 NO 50 0,0
18.10.2017 13:00:00 2,9 2,5 16 9 27 15 NO 20 0,0
18.10.2017 12:00:00 2,8 2,5 20 11 27 15 N 50 0,0
18.10.2017 11:00:00 2,3 2,0 18 10 25 13 N 1,4 0,0
18.10.2017 10:00:00 2,6 2,2 14 7 23 13 N 3,1 0,0
18.10.2017 09:00:00 3,3 2,7 13 7 22 12 N 42 0,0
18.10.2017 08:00:00 3,0 2,0 13 7 21 12 N 50 0,0
18.10.2017 07:00:00 2,8 1,5 13 7 22 12 NO 50 0,0
18.10.2017 06:00:00 3,3 1,7 15 8 23 12 NO 50 0,0
18.10.2017 05:00:00 3,8 1,3 14 8 23 12 NO 50 0,0
18.10.2017 04:00:00 4,0 1,5 16 9 23 12 ONO 50 0,0
18.10.2017 03:00:00 5,2 2,7 18 10 22 12 ONO 50 0,0
18.10.2017 02:00:00 4,8 2,0 14 8 21 11 ONO 50 0,0
18.10.2017 01:00:00 5,4 2,6 13 7 20 11 O 50 0,0
18.10.2017 00:00:00 5,5 2,7 11 6 20 11 ONO 50 0,0
17.10.2017 23:00:00 6,1 3,3 15 8 18 10 O 50 0,0
17.10.2017 22:00:00 6,6 3,4 14 7 18 10 O 50 0,0
17.10.2017 21:00:00 6,9 3,9 12 7 23 13 O 50 0,0
17.10.2017 20:00:00 7,3 3,3 16 8 23 13 O 50 0,0
17.10.2017 19:00:00 7,7 4,1 19 10 23 12 O 50 0,0
17.10.2017 18:00:00 8,0 4,0 16 9 21 11 O 50 0,0
17.10.2017 17:00:00 8,2 4,6 13 7 24 13 OSO 50 0,0
17.10.2017 16:00:00 8,7 4,7 16 8 27 14 OSO 50 0,0
17.10.2017 15:00:00 8,9 4,1 20 11 30 16 OSO 50 0,0
17.10.2017 14:00:00 8,9 3,3 21 11 36 20 OSO 49 0,0
17.10.2017 13:00:00 8,7 3,3 26 14 36 20 OSO 46 0,0
17.10.2017 12:00:00 8,2 3,1 29 16 37 20 OSO 49 0,0
17.10.2017 11:00:00 8,0 3,3 33 18 40 22 OSO 44 0,0
17.10.2017 10:00:00 7,6 2,7 32 17 41 22 OSO 50 0,0
17.10.2017 09:00:00 7,5 2,8 34 18 42 23 O 50 0,0
17.10.2017 08:00:00 7,4 2,7 33 18 44 24 O 50 0,0
17.10.2017 07:00:00 7,7 2,6 35 19 54 29 O 50 0,0
17.10.2017 06:00:00 7,8 2,7 29 15 57 31 O 50 0,0
17.10.2017 05:00:00 8,1 2,5 43 23 62 34 O 50 0,0
17.10.2017 04:00:00 8,1 2,5 44 24 62 34 O 50 0,0

tt = Temperatura
td = dewpoint
ff = velocità del vento
fx = gusts
dd = direzione del vento
vv = visibility
rr = precipitazioni

Stazioni seguenti

WeatherPro
AMSI
MeteoEarth